Miscellaneous Local Product
Issued by NWS Hastings, NE

Home | Current Version | Previous Version | Text Only | Print | Product List | Glossary Off
Versions: 1 2 3 4 5 6 7 8 9 10 11 12 13 14 15 16 17 18 19 20 21 22 23 24 25 26 27 28 29 30 31 32 33 34 35 36 37 38 39 40 41 42 43 44 45 46 47 48 49 50

747
AXUS43 KGID 212202
MISGRI

GID CWA HOURLY WEATHER ROUNDUP
NATIONAL WEATHER SERVICE HASTINGS NE
500 PM CDT SUN MAY 21 2017

NOTE: "FAIR" INDICATES FEW OR NO CLOUDS BELOW 12,000 FEET WITH NO
SIGNIFICANT WEATHER AND/OR OBSTRUCTIONS TO VISIBILITY.

...SOUTH CENTRAL NEBRASKA...

CITY           SKY/WX    TMP DP  RH WIND       PRES   REMARKS
GRAND ISLAND   SUNNY     70  38  31 NW12G23   30.07F
HASTINGS       SUNNY     70  40  33 W10       30.08F
KEARNEY        SUNNY     70  37  30 NW12      30.08F
ORD            SUNNY     67  35  30 NW13      30.05
YORK           SUNNY     68  41  37 W10       30.07F
AURORA         SUNNY     69  38  32 NW16      30.07F
LEXINGTON      MOSUNNY   69  39  33 NW14      30.08F
HOLDREGE       SUNNY     69  38  32 NW8       30.08F
HEBRON         SUNNY     69  41  35 NW6       30.08F

...NEBRASKA PANHANDLE...

CITY           SKY/WX    TMP DP  RH WIND       PRES   REMARKS
CHADRON        SUNNY     65  39  38 NW17G25   30.08S
ALLIANCE       CLOUDY    56  45  66 SW9       30.12F
SCOTTSBLUFF    CLOUDY    55  32  41 W9        30.14F
SIDNEY         LGT RAIN  56  47  71 NE10      30.14S

...WESTERN AND NORTH CENTRAL NEBRASKA...

CITY           SKY/WX    TMP DP  RH WIND       PRES   REMARKS
VALENTINE      MOSUNNY   70  32  24 W10       30.03F
AINSWORTH      MOSUNNY   67  37  33 NW10G22   30.05S
ONEILL         SUNNY     65  32  29 NW9G17    30.05F
BROKEN BOW     SUNNY     68  40  35 NW14      30.07F
IMPERIAL       CLOUDY    67  42  40 N8        30.10F
NORTH PLATTE   SUNNY     67  40  37 NW12      30.08F
MCCOOK         SUNNY     73  42  32 NW13      30.09F

...EASTERN NEBRASKA...

CITY           SKY/WX    TMP DP  RH WIND       PRES   REMARKS
NORFOLK        MOSUNNY   64  39  39 NW14G23   30.05F
SO SIOUX CITY  MOSUNNY   61  45  55 NW21      30.04S
TEKAMAH        SUNNY     64  46  52 NW20G28   30.05S
COLUMBUS       SUNNY     66  39  37 NW21G26   30.07F
ALBION         SUNNY     66  39  36 NW10G23   30.06F
OMAHA EPPLEY   MOSUNNY   65  41  41 NW14G28   30.05S
MILLARD        MOSUNNY   68  43  40 NW16      30.06S
LINCOLN        SUNNY     70  38  31 W13G24    30.07F
NEBRASKA CITY  MOSUNNY   67  36  31 NW21      30.08S
BEATRICE       SUNNY     69  43  39 NW12G18   30.08F
FALLS CITY     SUNNY     68  41  37 W15G25    30.07F

...NORTHERN KANSAS...

CITY           SKY/WX    TMP DP  RH WIND       PRES   REMARKS
GOODLAND       LGT RAIN  62  47  57 CALM      30.12F
HILL CITY      MOSUNNY   75  41  29 VRB3      30.08F
NORTON         CLEAR     70  43  37 NW6       30.08F
PHILLIPSBURG   MOSUNNY   73  46  38 W9        30.08S
SMITH CENTER   PTSUNNY   72  45  37 NW10      30.08F
HAYS           MOSUNNY   71  48  43 S7        30.09F
RUSSELL        SUNNY     73  47  39 SW12      30.07F
CONCORDIA      SUNNY     71  45  39 W12       30.08F
SALINA         SUNNY     76  46  34 VRB5      30.09F
TOPEKA         SUNNY     71  45  39 W9G17     30.09F



USA.gov is the U.S. government's official web portal to all federal, state and local government web resources and services.